Regional Weather Roundup
Issued by NWS

Home | Current Version | Previous Version | Graphics & Text | Print | Product List | Glossary On
Versions: 1 2 3 4 5 6 7 8 9 10 11 12 13 14 15 16 17 18 19 20 21 22 23 24 25 26 27 28 29 30 31 32 33 34 35 36 37 38 39 40 41 42 43 44 45 46 47 48 49 50
000
ASUS43 KMPX 142001
RWRMN
WEATHER ROUNDUP FOR MINNESOTA
NATIONAL WEATHER SERVICE TWIN CITIES/CHANHASSEN MN
200 PM CST THU DEC 14 2017


NOTE: "FAIR" INDICATES FEW OR NO CLOUDS BELOW 12,000 FEET WITH NO
SIGNIFICANT WEATHER AND/OR OBSTRUCTIONS TO VISIBILITY. N/A MEANS
CURRENT SKY AND/OR WEATHER CONDITIONS ARE NOT AVAILABLE.

MNZ060>063-068>070-142100-
   Twin Cities Metro

CITY           SKY/WX    TMP DP  RH WIND       PRES   REMARKS
TWIN CITIES    FLURRIES  22  17  81 SW7       30.02F WCI  13
ST PAUL        CLOUDY    22  16  78 SW7       30.03F WCI  13
CRYSTAL        CLOUDY    21  14  74 W8        30.01F WCI  11
BLAINE         FLURRIES  23  18  80 W8        30.01S WCI  14
LAKEVILLE      FLURRIES  19  18  93 W8        30.03S WCI   9
EDEN PRAIRIE   CLOUDY    22  16  78 SW7       30.00F WCI  13
SOUTH ST PAUL  CLOUDY    23  17  77 W7        30.02F WCI  14
LAKE ELMO      LGT SNOW  23  19  86 SW5       30.02F WCI  17
$$
MNZ001>005-007-008-013>017-022>024-027-028-142100-
   Northwest Minnesota

CITY           SKY/WX    TMP DP  RH WIND       PRES   REMARKS
BEMIDJI        CLOUDY    16  10  77 NW18      29.97S WCI  -1
HALLOCK        FLURRIES  18  12  79 NW10      30.04F WCI   6
ROSEAU         LGT SNOW  14   9  79 NW9       30.00F WCI   2
WARROAD        LGT SNOW  12   9  85 NW8       29.99F WCI   1
THIEF RVR FALL FLURRIES  16  10  79 NW14      30.03F WCI   1
CROOKSTON      FLURRIES  18  16  93 N16       30.07S WCI   3
FOSSTON        FLURRIES  16  12  86 NW12G17   30.01F WCI   3
DETROIT LAKES  CLOUDY    21  18  86 NW18G24   30.02F WCI   6
MOORHEAD       CLOUDY    21  18  86 CALM      30.08S
PARK RAPIDS    FLURRIES  19  13  77 NW16      29.96F WCI   4
MAHNOMEN       LGT SNOW  18  14  85 NW20      30.02S WCI   2
$$
MNZ006-009>011-018-025>026-142100-
   North Central Minnesota

CITY           SKY/WX    TMP DP  RH WIND       PRES   REMARKS
BAUDETTE       LGT SNOW  12   6  77 NW12      29.96S WCI  -2
FLAG ISLAND    FLURRIES  12   7  79 W13       29.96S WCI  -3
INTL FALLS     LGT SNOW  15   7  70 W6        29.93F WCI   6
WASKISH        LGT SNOW  14  10  85 W5        29.97F WCI   6
BIG FORK       LGT SNOW  16   9  73 W7        29.94S WCI   6
LONGVILLE      CLOUDY    18  12  79 NW6       29.96F WCI   9
GRAND RAPIDS   FLURRIES  17  10  74 NW12      29.95F WCI   4
CRANE LAKE     LGT SNOW  14   9  79 W5        29.95S WCI   6
ORR            LGT SNOW  14   7  73 W6        29.90S WCI   5
COOK           LGT SNOW  14   9  79 W8        29.92F WCI   3
WALKER         CLOUDY    17  11  77 NW10      29.97S WCI   4
$$
MNZ012-019>021-037-142100-
   Northeast Minnesota

CITY           SKY/WX    TMP DP  RH WIND       PRES   REMARKS
DULUTH         FLURRIES  16  10  77 NW9       29.91F WCI   4
ELY            CLOUDY    16   9  73 NW6       29.89F WCI   7
HIBBING        CLOUDY    15   8  73 W8        29.92F WCI   4
EVELETH        FLURRIES  15   7  70 NW7       29.93S WCI   5
DULUTH HARBOR  FLURRIES  19  14  79 W8        29.98F WCI   9
TWO HARBORS    CLOUDY    23  14  68 NW5       29.90F WCI  17
GRAND MARAIS     N/A     22  11  62 VRB3      29.94F
G MARAIS ARPRT LGT SNOW  12   5  73 W5        29.85F WCI   4
$$
MNZ029>031-032-039>041-046>048-054>057-064-142100-
   West Central Minnesota

CITY           SKY/WX    TMP DP  RH WIND       PRES   REMARKS
FERGUS FALLS   CLOUDY    21  18  86 N12G22    30.07F WCI   9
WHEATON        CLOUDY    25  19  80 NW10      30.09S WCI  15
MORRIS         CLOUDY    25  19  80 NW15      30.03F WCI  12
ALEXANDRIA     CLOUDY    23  17  78 NW13      30.00F WCI  11
ELBOW LAKE     CLOUDY    23  19  85 NW13G18   30.04S WCI  11
WADENA         FLURRIES  19  14  79 NW17      29.98F WCI   4
GLENWOOD       FLURRIES  23  18  80 NW12G18   30.01F WCI  12
APPLETON       CLOUDY    27  21  80 NW12      30.05S WCI  16
BENSON         FLURRIES  27  19  74 N13       30.05S WCI  16
ORTONVILLE     MIX PCPN  25  21  86 NW7       30.06R WCI  17
MADISON        CLOUDY    28  23  80 N8        30.06S WCI  20
WILLMAR        CLOUDY    27  19  74 NW12      30.04S WCI  16
$$
MNZ033>034-036-042>043-049>051-058-059-142100-
   Central Minnesota

CITY           SKY/WX    TMP DP  RH WIND       PRES   REMARKS
ST CLOUD       CLOUDY    21  15  78 NW9       30.00F WCI  11
SAUK CENTRE    CLOUDY    22  16  78 NW10      30.01S WCI  11
PAYNESVILLE    CLOUDY    23  18  82 NW9       30.02S WCI  13
AITKIN         FLURRIES  18  10  73 W7        29.95S WCI   8
PINE RIVER     LGT SNOW  18  12  79 NW6       30.00F WCI   9
BRAINERD       CLOUDY    20  12  71 NW10      29.98S WCI   9
STAPLES        FLURRIES  19  14  79 NW14      29.98S WCI   6
LONG PRAIRIE   CLOUDY    21  16  79 W8        30.00F WCI  12
LITTLE FALLS   CLOUDY    21  10  63 NW5       30.00F WCI  15
LITCHFIELD     CLOUDY    23  18  80 NW9       30.02S WCI  13
BUFFALO        CLOUDY    21  16  81 W6        30.03S WCI  14
MAPLE LAKE     CLOUDY    23  18  81 W8        30.03R WCI  14
HUTCHINSON     CLOUDY    24  19  83 W10       30.03S WCI  13
$$
MNZ037-044-045-052-053-142100-
   East Central Minnesota

CITY           SKY/WX    TMP DP  RH WIND       PRES   REMARKS
PRINCETON      CLOUDY    21  16  79 W7        30.00S WCI  13
MORA           FLURRIES  19  14  79 NW8       30.01R WCI   9
CAMBRIDGE      FLURRIES  21  12  68 W6        30.00F WCI  14
RUSH CITY      LGT SNOW  20  15  79 W5        30.00F WCI  14
MOOSE LAKE     CLOUDY    19  12  73 W7        29.95F WCI  10
HINCKLEY       FLURRIES  21  14  73 W7        29.98F WCI  13
CLOQUET        LGT SNOW  18  10  73 W7        29.93F WCI   8
MCGREGOR       CLOUDY    19  12  73 W5        29.95F WCI  13
$$
MNZ071>073-080-081-089-090-097-098-142100-
   Southwest Minnesota

CITY           SKY/WX    TMP DP  RH WIND       PRES   REMARKS
MONTEVIDEO     CLOUDY    27  19  74 N9        30.05R WCI  17
GRANITE FALLS  CLOUDY    28  21  74 NW9       30.06S WCI  20
CANBY          CLOUDY    28  23  79 N7        30.06R WCI  21
MARSHALL       CLOUDY    27  21  78 N9        30.05R WCI  18
REDWOOD FALLS  CLOUDY    27  19  72 NW8       30.03F WCI  19
OLIVIA         CLOUDY    28  21  74 NW9       30.02F WCI  20
PIPESTONE      CLOUDY    30  25  80 N3        30.00F
WINDOM           N/A     28  16  59 NW16      30.02S WCI  17
WORTHINGTON    FLURRIES  31  23  72 N10       30.02S WCI  22
JACKSON        CLOUDY    32  21  64 MISG      30.01S
SLAYTON        FLURRIES  29  24  80 N9        30.02S WCI  21
$$
MNZ065>067-074>077-082>085-091>093-142100-
   South Central Minnesota

CITY           SKY/WX    TMP DP  RH WIND       PRES   REMARKS
MANKATO        FLURRIES  22  18  85 NW10      30.03F WCI  11
NEW ULM        CLOUDY    25  18  74 NW8       30.03F WCI  16
ST JAMES       CLOUDY    27  19  74 NW12      30.04F WCI  16
FAIRMONT       CLOUDY    28  21  75 NW12      30.03S WCI  18
GLENCOE        CLOUDY    23  18  83 W7        30.02F WCI  14
FARIBAULT      CLOUDY    21  18  86 W7        30.03S WCI  13
OWATONNA       CLOUDY    23  18  80 W10       30.01F WCI  12
WASECA         CLOUDY    23  19  86 W9        30.04S WCI  13
$$
MNZ078>079-086>088-094>096-142100-
   Southeast Minnesota

CITY           SKY/WX    TMP DP  RH WIND       PRES   REMARKS
ROCHESTER      CLOUDY    21  16  81 W12       30.00F WCI   9
RED WING       CLOUDY    25  14  63 W6        30.02F WCI  18
STANTON        CLOUDY    24  18  79 W5        30.02S WCI  18
DODGE CENTER   CLOUDY    21  16  79 W9        30.00S WCI  11
WINONA           N/A     28  14  54 W6        30.04F WCI  22
PRESTON        CLOUDY    25  14  62 SW10G17   30.01S WCI  15
$$
ABBREVIATIONS USED IN REMARKS
   TC - TEMPERATURES IN CELSIUS
  WCI - WIND CHILL INDEX
   HX - HEAT INDEX
  VSB - VISIBILITY
$$




USA.gov is the U.S. government's official web portal to all federal, state and local government web resources and services.